573  
NZUS99 KIND 191709  
HRRIND  
 
WEATHER ROUNDUP FOR INDIANA AND SURROUNDING STATES  
NATIONAL WEATHER SERVICE INDIANAPOLIS IN  
1200 PM EST SAT JAN 19 2019  
   
..INDIANA
 
 
 
CITY SKY/WX TMP DP RH WIND PRES REMARKS  
INDIANAPOLIS LGT RAIN 33 31 92 NE18 29.73F FOG WCI 22  
EAGLE CREEK MIX PCPN 32 29 88 NE13G23 29.74F FOG WCI 22  
ZIONSVILLE RAIN 29 29 100 NE5 29.78F WCI 24  
FISHERS CLOUDY 30 30 100 NE12 29.76F WCI 21  
ANDERSON FRZ RAIN 30 30 100 N6 29.79F FOG WCI 24  
MOUNT COMFORT CLOUDY 32 32 100 NE15G21 29.76F WCI 22  
GREENWOOD CLOUDY 33 32 98 NE12G18 29.74S WCI 24  
SHELBYVILLE LGT RAIN 35 32 88 NE15 29.72S FOG WCI 25  

 
 
CITY SKY/WX TMP DP RH WIND PRES REMARKS  
LAFAYETTE LGT SNOW 26 25 96 NE15G29 29.85F FOG WCI 14  
KOKOMO SNOW 28 27 96 NE18G28 29.84F VSB 1/2 WCI 15  
FRANKFORT LGT RAIN 30 26 86 NE10 29.83F WCI 21  
CRAWFORDSVILLE CLOUDY 29 29 100 NE9 29.79S FOG WCI 20  
MUNCIE FRZ RAIN 32 28 85 NE18G28 29.79F FOG WCI 20  
GREENCASTLE CLOUDY 32 32 100 N14G22 29.75F FOG WCI 22  
TERRE HAUTE LGT RAIN 34 33 96 N12 29.75S FOG WCI 25  
BLOOMINGTON DRIZZLE 36 36 100 N13 29.67F FOG WCI 27  
COLUMBUS LGT RAIN 36 32 87 NE8 29.71F FOG WCI 29  
BEDFORD LGT RAIN 39 37 93 NE7 29.65F WCI 34  
NORTH VERNON LGT RAIN 36 36 100 NE7 29.67F WCI 30  

 
 
CITY SKY/WX TMP DP RH WIND PRES REMARKS  
GARY LGT SNOW 27 25 93 E18G33 30.03R WCI 13  
VALPARAISO FLURRIES 27 19 72 NE15G24 29.98S WCI 15  
LA PORTE LGT SNOW 23 19 85 NE14G21 29.98F WCI 11  
MICHIGAN CITY LGT SNOW 23 18 80 NE8G17 30.02S WCI 14  
SOUTH BEND LGT SNOW 22 17 81 NE14G23 30.00F WCI 9  
ELKHART LGT SNOW 21 18 86 NE14 30.00S WCI 8  
GOSHEN LGT SNOW 22 20 92 NE15G25 29.97F VSB 3/4 WCI 9  
ANGOLA SNOW 21 19 93 NE14G20 29.96F VSB 1/2 WCI 8  
KENDALLVILLE LGT SNOW 24 19 84 NE15 29.95F VSB 1 WCI 11  
AUBURN LGT SNOW 25 23 93 NE15G22 29.95F WCI 12  
RENSSELAER LGT SNOW 27 23 86 NE20 29.93F WCI 13  
KNOX CLOUDY 25 19 80 NE17G23 29.96S WCI 11  
PLYMOUTH FOG 21 21 100 NE14G22 29.95S VSB 3/4 WCI 8  
ROCHESTER LGT SNOW 28 23 80 NE15G21 29.92F VSB 3/4 WCI 17  
WARSAW LGT SNOW 25 21 86 NE14G22 29.94F WCI 13  
FORT WAYNE SNOW 27 24 89 NE21G33 29.90F VSB 1/4 WCI 13  
MONTICELLO LGT SNOW 25 23 91 NE16G22 29.88F WCI 13  
LOGANSPORT LGT SNOW 27 25 93 NE12G26 29.88F VSB 3/4 WCI 16  
PERU/GRISSOM HVY SNOW 26 26 100 NE23 29.84F VSB 1/4 WCI 11  
HUNTINGTON LGT SNOW 26 24 93 NE16G22 29.88F WCI 13  
MARION MIX PCPN N/A N/A N/A NE20G25 29.82F  
PORTLAND LGT SNOW 30 30 100 NE12G18 29.81F WCI 21  
RICHMOND LGT RAIN 32 32 100 MISG 29.74F  
BATESVILLE CLOUDY 34 34 100 NE13 29.69F FOG WCI 25  
WASHINGTON LGT RAIN 39 37 93 N14 29.65F WCI 31  
FRENCH LICK CLOUDY 37 N/A N/A NE12 29.62F WCI 30  
MADISON CLOUDY 39 39 100 E8 29.66F WCI 34  
HUNTINGBURG LGT RAIN 42 41 96 NE8 29.61F  
JEFFERSONVILLE LGT RAIN 42 41 97 NW6 29.64F  
EVANSVILLE RAIN 43 43 100 N10 29.61F FOG  

 
   
..ILLINOIS
 
 
 
CITY SKY/WX TMP DP RH WIND PRES REMARKS  
CHICAGO LGT SNOW 25 22 88 NE22G33 30.04S BLWGSNOWWCI 10  
MOLINE FAIR 20 11 68 N12G22 30.12R WCI 8  
ROCKFORD CLOUDY 17 11 77 N22G28 30.14R WCI 0  
KANKAKEE LGT RAIN 26 22 84 NE22 29.96S WCI 12  
PEORIA LGT SNOW 27 22 81 NE13G28 29.98R WCI 16  
BLOOMINGTON FLURRIES 26 24 92 NE30G39 29.90S WCI 10  
CHAMPAIGN MIX PCPN 27 24 89 NE24G36 29.84S WCI 12  
RANTOUL CLOUDY 26 23 91 NE18 29.87F FOG WCI 12  
DANVILLE SNOW 26 24 92 NE17G23 29.82S VSB 1/2 WCI 14  
QUINCY CLOUDY 24 19 81 N25G37 30.00R HAZE WCI 8  
SPRINGFIELD CLOUDY 29 24 82 N24G35 29.91R WCI 15  
DECATUR CLOUDY 27 23 85 NE25G38 29.86S WCI 12  
MATTOON LGT SNOW 30 28 92 N26G38 29.78R FOG WCI 16  
PARIS MIX PCPN 33 31 94 NE16 29.80R WCI 22  
EFFINGHAM DRIZZLE 34 34 100 N13G25 29.77F WCI 25  
ROBINSON LGT RAIN 35 35 100 N13 29.73S WCI 26  
OLNEY RAIN 36 36 100 N14G25 29.72S WCI 27  
LAWRENCEVILLE LGT RAIN 37 36 96 N18G25 29.70R FOG WCI 27  
MOUNT VERNON LGT RAIN 36 36 100 N13G20 29.71S WCI 27  
FAIRFIELD RAIN 37 37 100 N12G17 29.68F WCI 29  
MOUNT CARMEL DRIZZLE 38 37 97 N17 29.67F WCI 28  
CARMI LGT RAIN 39 39 100 N17G24 29.64F WCI 30  

 
   
..KENTUCKY
 
 
 
CITY SKY/WX TMP DP RH WIND PRES REMARKS  
LOUISVILLE LGT RAIN 46 44 93 NW5 29.62F FOG  
PADUCAH RAIN 43 40 89 N15G25 29.58F FOG  
OWENSBORO RAIN 45 45 100 NE10 29.56F FOG  
FORT KNOX LGT RAIN 51 51 100 S13 29.61F  
LEXINGTON LGT RAIN 47 44 90 SE12G21 29.67F  
BOWLING GREEN LGT RAIN 54 51 90 SE6 29.59F FOG  
JACKSON LGT RAIN 45 43 93 SE7G17 29.71F FOG  

 
   
..OHIO
 
 
 
CITY SKY/WX TMP DP RH WIND PRES REMARKS  
CINCINNATI RAIN 38 37 97 NE10 29.68F VSB 3/4 WCI 31  
DAYTON LGT RAIN 33 31 92 E12 29.77F FOG WCI 24  
TOLEDO SNOW 26 21 81 NE15 29.99S VSB 1/2 WCI 14  
DEFIANCE LGT SNOW 24 21 88 NE17G28 29.95F VSB 3/4 WCI 11  
FINDLAY SNOW 29 26 89 NE21 29.89F VSB 1/2 WCI 16  
LIMA LGT SNOW 28 25 88 NE16G29 29.84F FOG WCI 16  
WRIGHT-PAT AFB LGT RAIN 33 31 90 NE9 29.76F FOG WCI 26  
COLUMBUS LGT RAIN 34 30 85 E13 29.81F FOG WCI 25  
CLEVELAND LGT SNOW 29 25 85 E12 29.97F VSB 3/4 WCI 19  

 
   
..MICHIGAN
 
 
 
CITY SKY/WX TMP DP RH WIND PRES REMARKS  
DETROIT SNOW 21 16 81 NE14 30.06F VSB 1/2 WCI 8  
GRAND RAPIDS LGT SNOW 18 12 77 NE21G29 30.11F VSB 1 WCI 1  
LANSING LGT SNOW 18 14 84 NE16G25 30.11S FOG WCI 3  
KALAMAZOO LGT SNOW 19 14 81 NE13G20 30.04F VSB 1 WCI 6  
BATTLE CREEK LGT SNOW 20 15 81 NE15 30.04F VSB 1 WCI 6  
MARSHALL LGT SNOW 20 19 93 NE7G17 30.03F VSB 1 WCI 11  
JACKSON SNOW 20 17 88 NE13 30.04F VSB 1/2 WCI 7  
BENTON HARBOR SNOW 20 14 77 NE9G21 30.05F VSB 1/2 WCI 9  
STURGIS LGT SNOW 23 19 85 NE14 29.99F WCI 10  
COLDWATER LGT SNOW 22 20 91 NE15 30.00F WCI 9  
HILLSDALE LGT SNOW 22 17 82 NE12 29.98F VSB 3/4 WCI 11  

 
   
..OTHER LOCATIONS
 
 
 
CITY SKY/WX TMP DP RH WIND PRES REMARKS  
SAINT LOUIS MO FRZ DRZL 31 27 85 N17G32 29.83F WCI 19  
CAPE GIRARDEAU CLOUDY 39 35 86 N20G30 29.61F WCI 29  
MILWAUKEE WI LGT SNOW 24 16 71 NE17G25 30.14F BLWGSNOWWCI 11  
NASHVILLE TN LGT RAIN 54 52 93 SE8 29.59F FOG  

 
 
 
 
CLICK HERE TO GO TO PREVIOUS BULLETINS.

The Nexlab IN Page Main Text Page